Location: Julian California
(33.0790°N, 116.6010°W)
Time: 07:44:52
(UTC-07:00)

Cosmos 292 Rocket - Pass Details

Date: 19 May 2017
Orbit: 673 x 696 km, 74.0° (Epoch: 22 September)

Event Time Altitude Azimuth Distance (km) Brightness Sun altitude
Rises 21:28:16 0° 206° (SSW) 3,053 7.0 -19.5°
Reaches altitude 10° 21:30:37 10° 211° (SSW) 2,138 6.2 -19.8°
Maximum altitude 21:35:20 55° 289° (WNW) 833 4.5 -20.6°
Drops below altitude 10° 21:40:04 10° 7° (N) 2,140 6.8 -21.3°
Sets 21:42:25 0° 12° (NNE) 3,056 7.6 -21.6°
